Weather History for KBDE - January, 2013

Change the Weather History Date:

Thursday, January 3, 2013

  Actual Average Record
Temperature  
Mean Temperature 10 °F -  
Max Temperature 21 °F 15 °F 40 °F (1984)
Min Temperature 0 °F -5 °F -37 °F (1961)
Degree Days  
Heating Degree Days 54    
Moisture  
Dew Point 5 °F    
Average Humidity 83    
Maximum Humidity 92    
Minimum Humidity 71    
Precipitation  
Precipitation 0.00 in - - ()
Sea Level Pressure  
Sea Level Pressure 30.07 in    
Wind  
Wind Speed 10 mph (WSW)    
Max Wind Speed 21 mph    
Max Gust Speed 31 mph    
Visibility 9 miles    
Events Snow    
Averages and records for this station are not official NWS values.
T = Trace of Precipitation, MM = Missing Value Source: NWS Daily Summary

Daily Weather History Graph

Daily Weather History Graph

Search for Another Location

Airport or City:

Trip Planner

Search our weather history database for the weather conditions in past years. The results will help you decide how hot, cold, wet, or windy it might be!

Date:

Astronomy

Jan. 03, 2013 Rise Set
Actual Time 8:11 AM CST 4:35 PM CST
Civil Twilight 7:34 AM CST 5:12 PM CST
Nautical Twilight 6:54 AM CST 5:52 PM CST
Astronomical Twilight 6:16 AM CST 6:30 PM CST
Moon 11:48 PM CST (1/3) 10:49 AM CST (1/3)
Length of Visible Light 9h 37m
Length of Day
8h 24m
Waning Gibbous, 65% of the Moon is Illuminated
Jan 3
Waning Gibbous
Jan 4
Last Quarter
Jan 11
New
Jan 18
First Quarter
Jan 26
Full

Hourly Weather History & Observations

Time (CST) Temp. Windchill Dew Point Humidity Pressure Visibility Wind Dir Wind Speed Gust Speed Precip Events Conditions
12:53 AM 10.9 °F -4.1 °F 7.0 °F 84% 30.18 in 7.0 mi NNW 12.7 mph - 0.00 in   Overcast
1:53 AM 10.0 °F -3.7 °F 6.1 °F 84% 30.19 in 5.0 mi NW 10.4 mph - 0.00 in Snow Light Snow
2:53 AM 9.0 °F -5.9 °F 5.0 °F 84% 30.22 in 7.0 mi NW 11.5 mph - 0.00 in Snow Light Snow
3:53 AM 6.1 °F -6.8 °F 3.0 °F 87% 30.23 in 9.0 mi NW 8.1 mph 17.3 mph 0.00 in   Overcast
4:38 AM 3.2 °F -7.8 °F 1.4 °F 92% 30.15 in 10.0 mi West 5.8 mph - 0.00 in   Overcast
4:53 AM 3.9 °F -6.9 °F 1.9 °F 91% 30.23 in 10.0 mi WNW 5.8 mph - 0.00 in   Overcast
5:53 AM 3.0 °F -6.4 °F 1.0 °F 91% 30.24 in 10.0 mi Variable 4.6 mph - N/A   Overcast
6:19 AM -0.4 °F -8.3 °F -2.2 °F 92% 30.15 in 10.0 mi WNW 3.5 mph - N/A   Scattered Clouds
6:53 AM -0.0 °F -7.9 °F -2.9 °F 88% 30.24 in 10.0 mi WNW 3.5 mph - N/A   Scattered Clouds
7:33 AM -0.4 °F -10.4 °F -2.2 °F 92% 30.14 in 10.0 mi SW 4.6 mph - N/A   Mostly Cloudy
7:53 AM -0.0 °F -11.6 °F -2.9 °F 88% 30.22 in 10.0 mi SW 5.8 mph - N/A   Overcast
8:45 AM -0.4 °F -12.0 °F -2.2 °F 92% 30.11 in 10.0 mi SSW 5.8 mph - N/A   Scattered Clouds
8:53 AM -0.0 °F -11.6 °F -2.9 °F 88% 30.20 in 10.0 mi SSW 5.8 mph - N/A   Partly Cloudy
9:53 AM 1.9 °F -10.6 °F -2.0 °F 83% 30.19 in 10.0 mi South 6.9 mph - N/A   Partly Cloudy
10:15 AM 3.2 °F -9.1 °F -0.4 °F 85% 30.09 in 9.0 mi South 6.9 mph - N/A   Mostly Cloudy
10:33 AM 3.2 °F -10.3 °F 1.4 °F 92% 30.08 in 9.0 mi South 8.1 mph - N/A   Scattered Clouds
10:53 AM 6.1 °F -7.8 °F 1.9 °F 83% 30.15 in 10.0 mi SSW 9.2 mph - N/A   Clear
11:53 AM 10.0 °F -6.5 °F 5.0 °F 80% 30.11 in 10.0 mi SW 15.0 mph - N/A   Clear
12:53 PM 12.9 °F -3.9 °F 7.0 °F 77% 30.05 in 10.0 mi SW 17.3 mph - N/A   Clear
1:48 PM 15.8 °F 0.9 °F 10.4 °F 79% 29.95 in 2.5 mi SW 15.0 mph - N/A   Haze
1:53 PM 16.0 °F 0.6 °F 10.0 °F 77% 30.03 in 10.0 mi SW 16.1 mph - N/A   Clear
2:53 PM 17.1 °F 2.0 °F 10.9 °F 77% 29.99 in 10.0 mi SW 16.1 mph - N/A   Clear
3:53 PM 18.0 °F 2.2 °F 12.0 °F 78% 29.95 in 10.0 mi SW 18.4 mph 25.3 mph N/A   Clear
4:53 PM 18.0 °F 1.3 °F 12.0 °F 78% 29.91 in 10.0 mi SW 20.7 mph 31.1 mph N/A   Clear
5:53 PM 18.0 °F 4.2 °F 12.0 °F 78% 29.88 in 10.0 mi SW 13.8 mph 24.2 mph N/A   Clear
6:53 PM 19.0 °F 6.8 °F 12.9 °F 77% 29.88 in 10.0 mi SW 11.5 mph - N/A   Clear
7:53 PM 19.9 °F 7.3 °F 12.9 °F 74% 29.86 in 10.0 mi WSW 12.7 mph 21.9 mph N/A   Clear
8:53 PM 21.0 °F 8.6 °F 14.0 °F 74% 29.86 in 10.0 mi WSW 12.7 mph 19.6 mph N/A   Clear
9:53 PM 21.0 °F 10.6 °F 12.9 °F 71% 29.86 in 10.0 mi WSW 9.2 mph - N/A   Clear
10:53 PM 19.9 °F 12.1 °F 12.9 °F 74% 29.87 in 10.0 mi WSW 5.8 mph - N/A   Clear
11:53 PM 19.9 °F 12.1 °F 12.9 °F 74% 29.88 in 10.0 mi West 5.8 mph - N/A   Clear